Preview of NWS' New Version of Forecast
This preview is not operational and should not be used for support decisions.

Regional Weather Roundup (RWR)

Issued by National Weather Service (NWS)

                            
000
ASUS46 KPQR 200510
RWROR 

OREGON REGIONAL WEATHER ROUNDUP
NATIONAL WEATHER SERVICE PORTLAND OR
900 PM PST TUE FEB 19 2019

NOTE: "FAIR" INDICATES FEW OR NO CLOUDS BELOW 12,000 FEET WITH
NO SIGNIFICANT WEATHER AND/OR OBSTRUCTIONS TO VISIBILITY.

ORZ001>013-200600-
NORTHWEST OREGON

  
CITY           SKY/WX    TMP DP  RH WIND       PRES   REMARKS
ASTORIA        RAIN      41  39  93 W9        29.94F FOG              
TILLAMOOK      CLOUDY    43  39  87 S5        29.99F                  
NEWPORT        CLOUDY    45  41  87 W13       30.06F                  
PORTLAND       LGT RAIN  43  41  93 W12       29.96F                  
VANCOUVER WA   LGT RAIN  42  38  85 W6        29.96F                  
SCAPPOOSE      LGT RAIN  43  38  82 SW5       29.95F                  
HILLSBORO      LGT RAIN  41  38  89 W6        29.97F                  
AURORA         LGT RAIN  42  40  92 S13       29.97F                  
MCMINNVILLE    LGT RAIN  42  39  89 SW7       29.97F                  
SALEM          CLOUDY    42  38  85 S15       29.98F                  
CORVALLIS      LGT RAIN  40  39  97 S12       30.02F                  
EUGENE         LGT RAIN  41  38  89 S12       30.05F                  
$$

ORZ021-028-200600-
SOUTHWEST OREGON

  
CITY           SKY/WX    TMP DP  RH WIND       PRES   REMARKS
NORTH BEND     LGT RAIN  46  43  89 W13       30.12F                  
BROOKINGS      LGT RAIN  41  40  96 CALM      30.17  FOG              
ROSEBURG       CLOUDY    42  37  82 S5        30.09F                  
SEXTON SUMMIT  LGT SNOW  28  27  96 SW12      29.99F FOG     WCI  18  
GRANTS PASS    CLOUDY    36  32  87 CALM      30.12F                  
MEDFORD        CLOUDY    39  30  70 E3        30.09F                  
$$

ORZ014>016-041-200600-
COLUMBIA GORGE

  
CITY           SKY/WX    TMP DP  RH WIND       PRES   REMARKS
TROUTDALE      RAIN      43  39  86 SW15      29.96S FOG              
HOOD RIVER     CLOUDY    37  34  87 CALM      29.89F                  
THE DALLES     PTCLDY    36  32  85 CALM      29.89F                  
$$

ORZ029>031-041-044-049-050-061>064-502-503-505>511-200600-
EASTERN OREGON

  
CITY           SKY/WX    TMP DP  RH WIND       PRES   REMARKS
MADRAS         NOT AVBL                                               
REDMOND        CLOUDY    34  25  69 W3        29.87F                  
BEND           MOCLDY    34  25  69 SW14      29.87F WCI  24          
PRINEVILLE     CLOUDY    32  25  74 SE3       29.88F                  
KLAMATH FALLS  MOCLDY    29  22  75 W7        29.98F                  
LAKEVIEW       CLOUDY    25  18  74 S9        29.92F                  
HERMISTON      CLOUDY    39  30  70 SW12      29.86F WCI  32          
PENDLETON      CLOUDY    36  32  85 S8        29.85F                  
JOHN DAY       CLOUDY    30  28  90 SW3       29.85F                  
MEACHAM        SNOW      29  25  85 VRB5      29.78F VSB 1/2          
LA GRANDE      LGT SNOW  29  27  92 SE9       29.83F FOG              
BAKER CITY     CLOUDY    29  25  85 SW5       29.81F                  
BURNS          CLOUDY    28  20  71 SW8       29.86F                  
ROME             N/A     30  23  75 SW8       29.85F                  
ONTARIO        CLOUDY    33  28  81 CALM      29.91F                  
$$